Location: Monrovia
(34.7865°N, 86.7139°W)
Time: 15:14:33
(UTC+00:00)

Cosmos 1315 Rocket - Pass Details

Date: 14 July 2020
Orbit: 530 x 568 km, 81.2° (Epoch: 12 August)

Event Time Altitude Azimuth Distance (km) Brightness Sun altitude
Rises 02:34:22 0° 352° (N) 2,768 7.2 -16.5°
Reaches altitude 10° 02:36:33 10° 353° (N) 1,870 6.2 -16.9°
Maximum altitude 02:40:41 86° 81° (E) 574 2.8 -17.5°
Enters shadow 02:42:30 33° 169° (S) 968 3.6 -17.8°
